Home   Weather   Ravensburg   Past weeks

Flag for Germany Past Weather in Ravensburg, Baden-Württemberg, Germany — Yesterday and Last 2 Weeks

Now
39 °F

Passing clouds.


Feels Like: 37 °F
Forecast: 27 / 62 °F
Wind: 3 mph from North

Location: Friedrichshafen Airport

Current Time: Apr 29, 2017 at 9:36:08 am

Latest Report: Apr 29, 2017 at 8:50 am


Visibility: N/A

Pressure: 30.09 "Hg

Humidity: 87%

Dew Point: 36 °F

Location of RavensburgLocation

Past Weather in Ravensburg — Graph

°F

Ravensburg Temperature Yesterday

Maximum temperature yesterday: 41 °F (at 3:20 pm)
Minimum temperature yesterday: 32 °F (at 5:20 am)
Average temperature yesterday: 36 °F

High & Low Weather Summary for the Past Weeks

 TemperatureHumidityPressure
High64 °F (Apr 24, 5:20 pm)100% (Apr 16, 6:50 am)30.51 "Hg (Apr 16, 6:50 am)
Low25 °F (Apr 21, 5:50 am)11% (Apr 21, 4:50 pm)29.71 "Hg (Apr 26, 12:05 am)
Average42 °F78%30.11 "Hg
* Reported Apr 14 8:20 am — Apr 29 8:20 am, Ravensburg, Weather by CustomWeather, © 2017

Note: Actual official high and low records may vary slightly from our data, if they occured in-between our weather recording intervals... More about our weather records

Advertising

Ravensburg Weather History for the Previous 24 Hours

Scroll right to see more
 ConditionsComfort  
Time TempWeatherWind HumidityBarometerVisibility
8:20 am
Sat, Apr 29
37 °FFog.3 mph93%30.09 "Hg3 mi
8:05 am37 °FFog.3 mph93%30.09 "Hg2 mi
7:38 am34 °FFog.3 mph93%30.09 "Hg2 mi
7:20 am34 °FFog.3 mph100%30.09 "Hg2 mi
6:50 am32 °FIce fog.3 mph100%30.09 "Hg2 mi
6:20 am30 °FIce fog.3 mph100%30.09 "Hg1 mi
5:50 am30 °FIce fog.5 mph100%30.09 "Hg1 mi
5:37 am30 °FChilly.5 mph93%30.09 "Hg1 mi
5:35 am28 °FChilly.3 mph100%30.09 "Hg1 mi
5:01 am30 °FChilly.No wind100%30.09 "Hg1 mi
4:55 am30 °FChilly.No wind100%30.09 "Hg1 mi
4:35 am30 °FChilly.3 mph100%30.09 "Hg1 mi
4:11 am30 °FChilly.2 mph100%30.09 "Hg1 mi
3:50 am32 °FChilly.2 mph100%30.09 "Hg0 mi
3:11 am32 °FChilly.No wind100%30.09 "Hg1 mi
3:05 am32 °FChilly.1 mph100%30.09 "Hg1 mi
2:20 am32 °FChilly.2 mph100%30.09 "Hg0 mi
1:50 am32 °FChilly.2 mph100%30.09 "Hg0 mi
1:40 am32 °FChilly.2 mph100%30.09 "Hg0 mi
1:29 am34 °FChilly.1 mph93%30.09 "Hg0 mi
1:08 am36 °FChilly.No wind93%30.09 "Hg1 mi
12:50 am36 °FChilly.No wind100%30.09 "Hg1 mi
12:36 am36 °FChilly.No wind100%30.09 "Hg1 mi
12:13 am36 °FChilly.3 mph93%30.09 "Hg2 mi
11:50 pm
Fri, Apr 28
36 °FChilly.No wind100%30.09 "Hg2 mi
11:31 pm36 °FChilly.No wind100%30.09 "Hg2 mi
10:50 pm37 °FPassing clouds.5 mph93%30.09 "Hg4 mi
10:20 pm37 °FMostly cloudy.5 mph100%30.07 "Hg4 mi
9:50 pm39 °FDrizzle. Mostly cloudy.5 mph93%30.07 "Hg5 mi
9:20 pm39 °FFog.2 mph93%30.07 "Hg2 mi
8:50 pm39 °FMostly cloudy.3 mph93%30.07 "Hg6 mi
8:20 pm39 °FPartly sunny.5 mph93%30.04 "HgN/A
7:50 pm41 °FPartly sunny.3 mph87%30.04 "HgN/A
7:20 pm41 °FBroken clouds.7 mph87%30.04 "HgN/A
6:50 pm41 °FCloudy.7 mph87%30.01 "HgN/A
6:20 pm41 °FMore clouds than sun.5 mph87%30.01 "HgN/A
5:50 pm41 °FSprinkles. Mostly cloudy.8 mph87%30.01 "HgN/A
5:20 pm39 °FLight rain. Mostly cloudy.5 mph93%30.01 "HgN/A
4:50 pm37 °FRain showers. Mostly cloudy.6 mph93%30.01 "Hg2 mi
4:20 pm41 °FSprinkles. Mostly cloudy.12 mph87%30.01 "HgN/A
3:50 pm41 °FMostly cloudy.3 mph87%29.98 "HgN/A
3:20 pm41 °FLight rain. Mostly cloudy.2 mph87%29.98 "HgN/A
2:50 pm39 °FLight rain. Overcast.2 mph93%29.98 "HgN/A
2:20 pm39 °FLight rain. Cloudy.1 mph87%29.98 "HgN/A
1:20 pm36 °FLight rain. Mostly cloudy.2 mph93%29.95 "Hg5 mi
12:50 pm36 °FLight rain. Mostly cloudy.3 mph93%29.95 "HgN/A
12:20 pm36 °FLight rain. Low clouds.2 mph93%29.92 "Hg5 mi
11:50 am36 °FLight rain. More clouds than sun.No wind93%29.92 "Hg4 mi
11:20 am34 °FLight rain. Mostly cloudy.No wind100%29.89 "Hg3 mi
10:50 am34 °FLight rain. Fog.1 mph93%29.89 "Hg1 mi
10:20 am32 °FLight rain. Ice fog.2 mph100%29.89 "Hg1 mi
9:20 am32 °FLight snow. Ice fog.1 mph100%29.89 "Hg1 mi
Weather by CustomWeather, © 2017

See weather overviewHow to use our weather pages